Regional Weather Roundup
Issued by NWS

Home | Current Version | Previous Version | Text Only | Print | Product List | Glossary Off
Versions: 1 2 3 4 5 6 7 8 9 10 11 12 13 14 15 16 17 18 19 20 21 22 23 24 25 26 27 28 29 30 31 32 33 34 35 36 37 38 39 40 41 42 43 44 45 46 47 48 49 50

000
ASUS43 KLSX 240410
RWRMO

WEATHER SUMMARY FOR MISSOURI
NATIONAL WEATHER SERVICE SPRINGFIELD MO
1100 PM CDT WED MAY 23 2018

NOTE: "FAIR" INDICATES FEW OR NO CLOUDS BELOW 12,000 FEET WITH NO
       SIGNIFICANT WEATHER AND/OR OBSTRUCTIONS TO VISIBILITY.
       CURRENT SKY AND/OR WEATHER CONDITIONS ARE NOT AVAILABLE FOR
       CHILLICOTHE AND FARMINGTON.

MOZ001>031-035>038-043-044-053-054-240500-
...NORTHERN AND WESTERN MISSOURI...

CITY           SKY/WX    TMP DP  RH WIND       PRES   REMARKS
KANSAS CTY INT PTCLDY    73  63  70 S9        30.07S
KANSAS C DTWN  CLOUDY    78  62  57 S10       30.07R
LEE`S SUMMIT   CLOUDY    72  65  78 S8        30.10R
ST JOSEPH      PTCLDY    78  66  66 S9        30.05R
CHILLICOTHE      N/A     77  67  71 SE3       30.09S
KIRKSVILLE     PTCLDY   N/A N/A N/A E3        30.12S

$$
MOZ066>068-077>081-088>096-101>105-240500-
...SOUTHWEST MISSOURI...

CITY           SKY/WX    TMP DP  RH WIND       PRES   REMARKS
SPRINGFIELD    CLOUDY    67  64  90 SE6       30.12R
JOPLIN         PTCLDY    69  66  90 E8        30.10R
BRANSON        CLOUDY    66  66 100 SE6       30.12S

$$
MOZ032>034-039>042-045>050-055>058-069>072-240500-
...CENTRAL MISSOURI...

CITY           SKY/WX    TMP DP  RH WIND       PRES   REMARKS
COLUMBIA       PTCLDY    72  66  81 SW3       30.11R
JEFFERSON CITY PTCLDY    77  66  68 E3        30.10R
ROLLA          PTCLDY    72  65  78 SE5       30.13R
SEDALIA        CLOUDY    71  68  90 S6        30.11S
WHITEMAN AFB   PTCLDY    68  65  90 S5        30.06S
WARRENSBURG    PTCLDY    70  63  78 SE6       30.10S
OSAGE BEACH    PTCLDY    67  66  97 CALM      30.12R

$$
MOZ051-052-059>065-240500-
...EAST CENTRAL MISSOURI...

CITY           SKY/WX    TMP DP  RH WIND       PRES   REMARKS
ST LOUIS INTL  MOCLDY    77  64  64 SE5       30.12S
SPIRIT OF STL  MOCLDY    72  69  90 CALM      30.10S
ST CHARLES     PTCLDY    73  68  84 CALM      30.10S

$$
MOZ072>076-082>087-097>100-106>115-240500-
...SOUTH CENTRAL AND SOUTHEAST MISSOURI...

CITY           SKY/WX    TMP DP  RH WIND       PRES   REMARKS
CAPE GIRARDEAU FAIR      72  68  87 E3        30.09R
FARMINGTON     PTCLDY    69  66  90 CALM      30.13S
POPLAR BLUFF   FAIR      73  70  90 CALM      30.09R
WEST PLAINS    PTCLDY    67  65  93 CALM      30.14R

$$




USA.gov is the U.S. government's official web portal to all federal, state and local government web resources and services.